[[{"header":{"parameterUnit":"m.s-1","parameterCategory":2,"la1":30.2991,"la2":30.254,"lo1":-89.0895,"lo2":-89.0444,"dy":0.0017,"dx":0.0017,"nx":28,"ny":28,"refTime":"2023-07-31T03:00:00:Z","depth":"0","parameterNumber":2,"parameterNumberName":"U-component_of_CURRENTS"},"data":[0,0,0,0,0,0,0,0,0,0,0,0,0,0,0,0,0,0,0,0,0,0,0,0,0,0,0,0,0,0,0,0,0,0,0,0,0,0,0,0,0,0,0,0,0,0,0,0,0,0,0,0,0,0,0,0,0,0,0.2816,0.2817,0,0.2816,0.2816,0.2816,0.279,0.279,0.279,0.2789,0.2724,0.2722,0.2721,0,0,0,0,0,0,0,0,0,0,0,0,0,0.2838,0.2837,0.2816,0.2817,0.2817,0.2816,0.2816,0.2816,0.279,0.279,0.2789,0.2789,0.2724,0.2722,0.2721,0,0,0,0,0,0,0,0,0,0,0,0,0,0.2829,0.2837,0.2816,0.2806,0.2806,0.2816,0.2816,0.2816,0.2791,0.279,0.2789,0.2789,0.2725,0.2723,0.2721,0.272,0,0,0.2714,0.2713,0,0,0,0,0,0,0,0,0.283,0.2828,0.2807,0.2807,0.2806,0.2805,0.28,0.2781,0.2791,0.2793,0.2789,0.2789,0.2747,0.2743,0.2741,0.2717,0.2714,0.2714,0.2713,0.2712,0.2711,0,0,0,0,0,0,0,0.283,0.2828,0.2813,0.2808,0.2807,0.2817,0.2814,0.2796,0.277,0.2793,0.2792,0.2797,0.2746,0.2744,0.274,0.2713,0.2714,0.2712,0.2711,0.271,0.2766,0.2768,0,0,0,0,0,0,0.2834,0.2829,0.2813,0.2814,0.282,0.2817,0.2814,0.2804,0.2772,0.2768,0.2797,0.2795,0.2747,0.2742,0.2737,0.2813,0.2712,0.271,0.2709,0.2763,0.2766,0.2769,0,0,0,0,0,0,0.2834,0.2832,0.2813,0.2824,0.2823,0.2817,0.2806,0.2804,0.2811,0.2776,0.277,0.2808,0.2747,0.274,0.2754,0.2807,0.2709,0.2707,0.276,0.2764,0.2768,0.2915,0,0,0,0,0,0,0.2835,0.2832,0.2828,0.2824,0.2823,0.2843,0.2807,0.2805,0.2816,0.2814,0.2783,0.2776,0.2746,0.2758,0.2752,0.2803,0.2706,0.2756,0.2762,0.2766,0.2907,0.2924,0.2938,0,0,0,0,0,0.2835,0.2842,0.2827,0.2826,0.2815,0.2845,0.2846,0.2837,0.2817,0.2837,0.2823,0.2777,0.2786,0.2758,0.2751,0.2802,0.2754,0.276,0.2766,0.29,0.292,0.2938,0,0,0,0,0,0,0.2851,0.284,0.2824,0.2825,0.2842,0.2842,0.2859,0.2849,0.2852,0.2847,0.2805,0.2799,0.2839,0.2798,0.2768,0.2835,0.2765,0.277,0.2869,0.2888,0.2903,0.2904,0.2704,0,0,0,0,0,0.2851,0.2851,0.2851,0.2856,0.2866,0.2862,0.2871,0.2869,0.2871,0.2871,0.2855,0.2843,0.2858,0.2853,0.2855,0.2877,0.2878,0.2909,0.2924,0.2938,0.2935,0.3008,0.303,0.2789,0.2789,0.2789,0,0,0.2859,0.2854,0.2853,0.286,0.2867,0.2898,0.2866,0.2894,0.2924,0.2863,0.29,0.2899,0.288,0.2925,0.2937,0.2894,0.3013,0.2945,0.2957,0.2947,0.3017,0.304,0.3061,0.2793,0.2793,0.2792,0,0,0.2886,0.2874,0.2885,0.2907,0.2927,0.2934,0.2947,0.2961,0.2973,0.3005,0.299,0.3023,0.3015,0.3035,0.3036,0.3134,0.3103,0.3134,0.3201,0.3274,0.3294,0.3312,0.3371,0.3393,0.3131,0.3131,0.3131,0,0.2894,0.2902,0.29,0.2928,0.2955,0.2955,0.2993,0.3014,0.3034,0.3054,0.3033,0.3078,0.3072,0.3137,0.3185,0.3171,0.3199,0.3132,0.3295,0.3313,0.3329,0.3384,0.3406,0.3139,0.3138,0.3137,0.3136,0,0.2929,0.2947,0.2968,0.2995,0.303,0.3068,0.3101,0.3137,0.3145,0.3157,0.3223,0.3229,0.3246,0.3273,0.3258,0.3372,0.3354,0.3319,0.3249,0.3362,0.3413,0.3434,0.315,0.3147,0.3145,0.3143,0,0,0.2915,0.2975,0.298,0.3017,0.3069,0.3106,0.3172,0.3228,0.3265,0.3299,0.3348,0.3413,0.3404,0.3407,0.3407,0.3475,0.3635,0.3452,0.3452,0.3512,0.38,0.3587,0.3588,0.3636,0.364,0.3643,0.3801,0,0.294,0.3009,0.3027,0.3111,0.3162,0.3197,0.3256,0.3311,0.3343,0.3394,0.3427,0.3467,0.3457,0.3471,0.3549,0.361,0.3691,0.3595,0.3677,0.3679,0.3478,0.3604,0.3307,0.3404,0.3821,0.3824,0.3826,0,0.2963,0.3012,0.3092,0.3183,0.3204,0.3248,0.3342,0.3389,0.346,0.3481,0.3527,0.3536,0.3642,0.3604,0.3778,0.3719,0.3777,0.3821,0.3827,0.358,0.3502,0.3353,0.3425,0.3269,0.3857,0.3855,0.3852,0,0.2978,0.3058,0.3126,0.3161,0.3258,0.3298,0.3338,0.3413,0.346,0.3525,0.3557,0.3651,0.3699,0.3801,0.3876,0.385,0.4052,0.4017,0.3884,0.387,0.3602,0.3555,0.3522,0.415,0.4149,0.4149,0.4149,0,0.3007,0.3066,0.3136,0.3183,0.3263,0.3314,0.3386,0.3434,0.3496,0.3556,0.3591,0.3649,0.3757,0.3858,0.3927,0.3958,0.4095,0.3916,0.3901,0.3644,0.3601,0.3434,0.342,0.4155,0.4154,0.4152,0.4151,0,0.3029,0.3072,0.3165,0.3255,0.3278,0.3337,0.3408,0.346,0.3505,0.3582,0.3605,0.3699,0.3812,0.3896,0.4059,0.3993,0.3906,0.4034,0.3708,0.3648,0.3289,0.3294,0.3196,0.3131,0.3903,0.3898,0.3895,0,0.3041,0.3094,0.3207,0.3261,0.3301,0.3371,0.342,0.3465,0.3508,0.361,0.365,0.3757,0.3816,0.3923,0.3831,0.3861,0.3809,0.3565,0.3434,0.3234,0.3235,0.3178,0.313,0.318,0.317,0.3163,0.3157,0,0.3077,0.3122,0.3201,0.3306,0.3368,0.3425,0.3478,0.3505,0.356,0.3605,0.3668,0.3716,0.3727,0.3573,0.3524,0.3487,0.3299,0.3404,0.3303,0.2743,0.2579,0.2517,0.3126,0.309,0.3097,0.3101,0.3105,0.3108,0.3094,0.3157,0.3255,0.3358,0.342,0.3453,0.3437,0.3479,0.3504,0.3476,0.3606,0.3521,0.3322,0.3175,0.3127,0.2676,0.2876,0.2487,0.2546,0.2534,0.2334,0.2767,0.2626,0.263,0.2633,0.2636,0.2639,0,0.3099,0.3187,0.3295,0.3385,0.3425,0.3453,0.3457,0.3374,0.333,0.3306,0.3295,0.2963,0.2708,0.2499,0.2025,0.1828,0.1791,0.1741,0.1616,0.1649,0.2099,0.1917,0.1482,0.1482,0.1483,0.1483,0.1483,0.1483,0.3108,0.3209,0.328,0.3356,0.3396,0.3317,0.3274,0.3131,0.3029,0.2742,0.2477,0.2406,0.2088,0.1638,0.1235,0.1189,0.1155,0.1003,0.1196,0.1485,0.1559,0.163,0.1452,0.0928,0.0927,0.0576,0.0573,0.0571]},{"header":{"parameterUnit":"m.s-1","parameterCategory":2,"la1":30.2991,"la2":30.254,"lo1":-89.0895,"lo2":-89.0444,"dy":0.0017,"dx":0.0017,"nx":28,"ny":28,"refTime":"2023-07-31T03:00:00:Z","depth":"0","parameterNumber":3,"parameterNumberName":"V-component_of_CURRENTS"},"data":[0,0,0,0,0,0,0,0,0,0,0,0,0,0,0,0,0,0,0,0,0,0,0,0,0,0,0,0,0,0,0,0,0,0,0,0,0,0,0,0,0,0,0,0,0,0,0,0,0,0,0,0,0,0,0,0,0,0,0.0068,0.0068,0,0.0054,0.0054,0.0054,0.0039,0.0039,0.0039,0.0039,0.001,0.001,0.0009,0,0,0,0,0,0,0,0,0,0,0,0,0,0.0075,0.0075,0.0068,0.0068,0.0068,0.0054,0.0054,0.0054,0.0039,0.0039,0.0039,0.0039,0.001,0.001,0.0009,0,0,0,0,0,0,0,0,0,0,0,0,0,0.0067,0.0075,0.0068,0.006,0.0059,0.0054,0.0054,0.0054,0.0039,0.0039,0.0039,0.0039,0.0011,0.001,0.0009,0.0007,0,0,0.0006,0.0005,0,0,0,0,0,0,0,0,0.0067,0.0066,0.0061,0.006,0.0059,0.0049,0.0046,0.0038,0.0039,0.0046,0.0039,0.0039,0.0023,0.0021,0.0017,0.0005,0.0004,0.0006,0.0005,0.0005,0.0004,0,0,0,0,0,0,0,0.0068,0.0067,0.0062,0.0061,0.006,0.0054,0.0053,0.0044,0.0034,0.0045,0.0044,0.0044,0.0022,0.0018,0.0017,0.0004,0.0006,0.0005,0.0004,0.0004,-0.0019,-0.0019,0,0,0,0,0,0,0.0072,0.0067,0.0062,0.0061,0.0064,0.0054,0.0053,0.0052,0.0035,0.0032,0.0044,0.0044,0.002,0.0018,0.0015,-0.0001,0.0005,0.0004,0.0003,-0.0019,-0.0019,-0.0019,0,0,0,0,0,0,0.0072,0.0071,0.0063,0.0065,0.0063,0.0055,0.0054,0.0052,0.0049,0.0035,0.0032,0.0044,0.002,0.0017,0.0009,-0.0001,0.0003,0.0003,-0.0019,-0.0019,-0.0019,-0.0025,0,0,0,0,0,0,0.0072,0.0072,0.007,0.0065,0.0064,0.0063,0.0054,0.0052,0.005,0.0049,0.0033,0.003,0.0019,0.001,0.0008,-0.0003,0.0002,-0.0019,-0.0019,-0.0019,-0.0025,-0.0025,-0.0026,0,0,0,0,0,0.0072,0.0072,0.007,0.0069,0.0062,0.0064,0.0062,0.0054,0.005,0.0051,0.0039,0.0031,0.0008,0.0009,0.0006,-0.0004,-0.0019,-0.0019,-0.0019,-0.0025,-0.0025,-0.0026,0,0,0,0,0,0,0.0068,0.0071,0.0068,0.0067,0.0067,0.0061,0.006,0.0057,0.0049,0.0047,0.0032,0.0028,0.0017,0.0011,0.0013,-0.001,-0.0007,-0.0008,-0.0011,-0.0011,-0.0012,0.0002,0.0001,0,0,0,0,0,0.0069,0.0072,0.0072,0.007,0.0071,0.0067,0.0065,0.0063,0.0057,0.0053,0.0043,0.003,0.0014,0.0006,-0.0003,-0.0015,0.0033,-0.0023,-0.0024,-0.0024,-0.0014,0.0064,0.0072,-0.0019,-0.0019,-0.0019,0,0,0.0066,0.0068,0.0069,0.0071,0.0069,0.0068,0.0065,0.0067,0.0058,0.0051,0.0038,0.0031,0.0013,-0.0002,-0.0008,-0.0009,0.0027,-0.0024,-0.0025,-0.0014,0.0065,0.0074,0.0082,-0.0019,-0.0019,-0.0019,0,0,0.007,0.0066,0.0074,0.0074,0.0078,0.0072,0.0074,0.0073,0.0063,0.0056,0.0043,0.0039,0.0016,0.0003,-0.0009,-0.0014,0.0026,-0.0025,-0.0021,0.0054,0.0063,0.0071,0.015,0.0165,-0.0029,-0.0029,-0.0029,0,0.0066,0.0071,0.0075,0.0082,0.0074,0.0074,0.0071,0.0063,0.0058,0.0054,0.0053,0.004,0.0021,0.0005,-0.0007,-0.0015,0.0041,-0.0021,0.0056,0.0065,0.0074,0.0153,0.017,-0.0029,-0.0029,-0.0029,-0.0029,0,0.0077,0.0077,0.008,0.0084,0.0078,0.0076,0.0066,0.0063,0.0054,0.0052,0.0049,0.004,0.0036,0.002,-0.0003,0.003,0.0055,0.0052,0.0061,0.0083,0.0164,0.0182,-0.003,-0.003,-0.003,-0.003,0,0,0.0075,0.0085,0.0086,0.0082,0.0075,0.0072,0.0056,0.0045,0.0053,0.0049,0.007,0.0028,0.0044,0.0032,0.0017,0.0064,0.0159,0.0078,0.0082,0.0164,0.0344,0.0314,0.0332,0.0177,0.018,0.0183,0.0379,0,0.0078,0.0086,0.0086,0.0078,0.0073,0.0062,0.0052,0.0045,0.0048,0.0076,0.0071,0.0088,0.004,0.0055,0.0089,0.0155,0.0206,0.0107,0.0304,0.031,0.0288,0.0351,0.0322,0.0491,0.0397,0.04,0.0402,0,0.0085,0.0086,0.0083,0.0072,0.007,0.0065,0.0057,0.0053,0.0079,0.0092,0.0114,0.0133,0.0177,0.0152,0.0278,0.0225,0.0277,0.0327,0.0336,0.0325,0.0314,0.0452,0.0527,0.0466,0.043,0.0428,0.0426,0,0.0079,0.0078,0.0072,0.0068,0.0063,0.0055,0.0048,0.0059,0.0079,0.0124,0.0182,0.0217,0.029,0.0349,0.042,0.0372,0.0596,0.0548,0.057,0.057,0.0591,0.0587,0.0637,0.0648,0.0647,0.0647,0.0646,0,0.0075,0.007,0.0072,0.007,0.007,0.0058,0.0077,0.0079,0.013,0.0198,0.0201,0.0299,0.0352,0.0467,0.0492,0.0605,0.0659,0.0598,0.0625,0.0586,0.0579,0.056,0.0525,0.0654,0.0653,0.0651,0.065,0,0.0075,0.0076,0.0074,0.0069,0.0072,0.0072,0.0102,0.0135,0.0172,0.0278,0.0308,0.0417,0.0574,0.0622,0.077,0.0727,0.0799,0.0832,0.0777,0.0791,0.0694,0.066,0.0783,0.0788,0.0889,0.0889,0.089,0,0.0083,0.0084,0.0085,0.0101,0.0102,0.0111,0.0137,0.0155,0.0212,0.0366,0.0443,0.061,0.0756,0.0938,0.0918,0.0978,0.0903,0.0926,0.0796,0.0708,0.0692,0.0664,0.0657,0.0842,0.0842,0.0842,0.0842,0,0.0106,0.0106,0.011,0.0136,0.0158,0.0191,0.0232,0.0287,0.0355,0.0482,0.0683,0.0818,0.0963,0.1042,0.1061,0.1044,0.0868,0.0924,0.0869,0.069,0.0636,0.0646,0.0693,0.0842,0.0842,0.0842,0.0842,0.0842,0.0139,0.0145,0.0161,0.0178,0.0213,0.0281,0.034,0.0434,0.0572,0.08,0.0882,0.1133,0.1112,0.1156,0.1099,0.09,0.0927,0.0808,0.0792,0.0785,0.0724,0.0756,0.0894,0.0894,0.0894,0.0894,0.0895,0,0.0182,0.0188,0.0212,0.0242,0.0289,0.03,0.0421,0.0531,0.0738,0.097,0.1179,0.1319,0.1292,0.1168,0.0913,0.0784,0.0729,0.0708,0.0659,0.0672,0.0744,0.0667,0.0717,0.0717,0.0717,0.0717,0.0717,0.0717,0.0214,0.0235,0.0229,0.0301,0.0337,0.0449,0.0536,0.0738,0.0933,0.1246,0.1422,0.1549,0.1399,0.0976,0.0705,0.0647,0.0588,0.0563,0.0574,0.0577,0.0584,0.059,0.0508,0.0524,0.0524,0.0495,0.0494,0.0494]}],[{"header":{"parameterUnit":"m.s-1","parameterCategory":2,"la1":30.2991,"la2":30.254,"lo1":-89.0895,"lo2":-89.0444,"dy":0.0017,"dx":0.0017,"nx":28,"ny":28,"refTime":"2023-07-31T03:00:00:Z","depth":"2","parameterNumber":2,"parameterNumberName":"U-component_of_CURRENTS"},"data":[0,0,0,0,0,0,0,0,0,0,0,0,0,0,0,0,0,0,0,0,0,0,0,0,0,0,0,0,0,0,0,0,0,0,0,0,0,0,0,0,0,0,0,0,0,0,0,0,0,0,0,0,0,0,0,0,0,0,0.1599,0.1599,0,0.1652,0.1653,0.1654,0.1704,0.1704,0.1704,0.1704,0.1679,0.1679,0.1678,0,0,0,0,0,0,0,0,0,0,0,0,0,0.1679,0.1677,0.1599,0.1599,0.1599,0.1652,0.1653,0.1655,0.1704,0.1704,0.1704,0.1704,0.168,0.1679,0.1678,0,0,0,0,0,0,0,0,0,0,0,0,0,0.1685,0.1676,0.1599,0.1625,0.1628,0.1652,0.1653,0.1655,0.1704,0.1704,0.1704,0.1704,0.168,0.1679,0.1678,0.1671,0,0,0.1675,0.1674,0,0,0,0,0,0,0,0,0.1685,0.1683,0.1621,0.1624,0.1626,0.1666,0.1672,0.1654,0.1704,0.1682,0.1704,0.1704,0.1663,0.1664,0.1684,0.167,0.1669,0.1675,0.1674,0.1674,0.1673,0,0,0,0,0,0,0,0.1684,0.1682,0.1627,0.1621,0.1624,0.1681,0.1682,0.1671,0.1675,0.1684,0.1686,0.1682,0.1665,0.1685,0.1683,0.1668,0.1675,0.1674,0.1673,0.1673,0.1685,0.1686,0,0,0,0,0,0,0.1656,0.168,0.1625,0.1628,0.1649,0.1679,0.168,0.1658,0.1677,0.1679,0.1681,0.1683,0.1687,0.1685,0.1682,0.171,0.1674,0.1673,0.1672,0.1684,0.1685,0.1687,0,0,0,0,0,0,0.1658,0.165,0.1623,0.1652,0.1651,0.1676,0.1653,0.1659,0.169,0.1675,0.1677,0.1705,0.1687,0.1684,0.1694,0.1708,0.1672,0.1671,0.1683,0.1685,0.1686,0.1742,0,0,0,0,0,0,0.1659,0.165,0.1657,0.1649,0.1648,0.1633,0.1652,0.166,0.1683,0.1687,0.1695,0.1693,0.1686,0.1696,0.1693,0.1706,0.167,0.1682,0.1684,0.1686,0.1739,0.1745,0.175,0,0,0,0,0,0.1662,0.1656,0.1657,0.1652,0.1645,0.1632,0.1639,0.1662,0.1684,0.1693,0.1714,0.1693,0.1705,0.1696,0.1692,0.1705,0.1681,0.1683,0.1685,0.1736,0.1744,0.175,0,0,0,0,0,0,0.1678,0.166,0.1661,0.1645,0.1638,0.1638,0.1661,0.1669,0.1698,0.1721,0.1706,0.1705,0.172,0.1705,0.1695,0.1714,0.1688,0.169,0.1728,0.1735,0.1741,0.178,0.167,0,0,0,0,0,0.1685,0.1688,0.1662,0.1652,0.1652,0.1662,0.1672,0.1686,0.1694,0.171,0.1707,0.1717,0.1725,0.1724,0.1726,0.1732,0.1774,0.1738,0.1743,0.1748,0.1778,0.1878,0.1897,0.1693,0.1693,0.1693,0,0,0.1689,0.1678,0.1681,0.166,0.1667,0.1673,0.1671,0.1689,0.1699,0.1699,0.1725,0.1736,0.1733,0.1751,0.1754,0.1739,0.1823,0.1751,0.1755,0.1783,0.1883,0.1903,0.1921,0.1695,0.1695,0.1694,0,0,0.1688,0.1687,0.1691,0.1697,0.1705,0.1704,0.1705,0.1711,0.1724,0.1751,0.1756,0.1779,0.1783,0.1785,0.1788,0.1822,0.1853,0.1818,0.1877,0.1973,0.1991,0.2008,0.2071,0.2093,0.1818,0.1819,0.1819,0,0.1707,0.1681,0.169,0.17,0.1704,0.1713,0.1715,0.1733,0.1743,0.1764,0.1767,0.1838,0.1804,0.1852,0.1859,0.1835,0.1903,0.1849,0.1984,0.2002,0.2019,0.2079,0.2103,0.1821,0.1821,0.1821,0.1821,0,0.1695,0.1701,0.1704,0.1716,0.1728,0.1731,0.174,0.1765,0.1788,0.1815,0.1882,0.1888,0.1933,0.1916,0.1896,0.1987,0.2001,0.1984,0.1973,0.2043,0.2101,0.2125,0.1826,0.1825,0.1824,0.1823,0,0,0.1689,0.169,0.1705,0.1718,0.1737,0.1747,0.177,0.1789,0.1848,0.1892,0.1971,0.1981,0.2029,0.2035,0.2026,0.2097,0.2226,0.21,0.2103,0.2174,0.2457,0.2208,0.221,0.2265,0.227,0.2274,0.2445,0,0.1679,0.1687,0.1688,0.172,0.1727,0.1755,0.178,0.183,0.1879,0.1965,0.2019,0.2094,0.206,0.2108,0.2178,0.2234,0.2298,0.2182,0.2369,0.2374,0.2155,0.2231,0.2022,0.2135,0.2468,0.2472,0.2475,0,0.1677,0.1683,0.1683,0.173,0.1739,0.1768,0.1845,0.1876,0.1991,0.2044,0.216,0.2218,0.2326,0.2287,0.2467,0.2417,0.2441,0.2478,0.2485,0.2257,0.217,0.2122,0.2166,0.2515,0.2512,0.2509,0.2506,0,0.1667,0.1697,0.1688,0.1704,0.1747,0.1775,0.1817,0.1917,0.1971,0.2122,0.2207,0.2361,0.2448,0.2563,0.2584,0.2579,0.2773,0.2762,0.2563,0.2546,0.24,0.2358,0.2883,0.2883,0.2883,0.2882,0.2882,0,0.1634,0.1659,0.1699,0.17,0.1772,0.1803,0.1894,0.1964,0.2077,0.2164,0.2266,0.2353,0.2532,0.2631,0.2669,0.2672,0.2839,0.2598,0.2583,0.2402,0.2362,0.2713,0.2691,0.2889,0.2887,0.2886,0.2885,0,0.1624,0.1618,0.1669,0.1727,0.176,0.1839,0.1945,0.2001,0.211,0.2233,0.2286,0.2418,0.2521,0.2623,0.2781,0.2731,0.2777,0.2709,0.245,0.2396,0.2484,0.2463,0.2595,0.2588,0.2582,0.2577,0.2572,0,0.1605,0.1611,0.1721,0.1749,0.1774,0.1876,0.1919,0.2029,0.2075,0.2234,0.2272,0.24,0.242,0.2529,0.2487,0.2513,0.2612,0.2297,0.2202,0.2488,0.2462,0.245,0.2437,0.2061,0.2053,0.2046,0.2041,0,0.1588,0.164,0.1657,0.1751,0.1805,0.1881,0.1947,0.1984,0.2084,0.2158,0.2207,0.2239,0.2268,0.216,0.2123,0.2106,0.2286,0.2152,0.2602,0.2098,0.1979,0.1953,0.1961,0.1982,0.1988,0.1992,0.1995,0.1998,0.1599,0.1631,0.1658,0.173,0.1796,0.1832,0.1859,0.1879,0.1929,0.1954,0.2041,0.1985,0.1977,0.1777,0.171,0.1663,0.1838,0.1793,0.1819,0.1851,0.169,0.1559,0.1455,0.1458,0.146,0.1462,0.1464,0,0.1581,0.1585,0.1625,0.1668,0.1665,0.1773,0.1818,0.177,0.1749,0.1751,0.1748,0.1513,0.1394,0.14,0.1218,0.1178,0.1231,0.1139,0.1231,0.1288,0.1339,0.1158,0.078,0.0778,0.0777,0.0775,0,0,0.1559,0.1545,0.1537,0.15,0.1537,0.1573,0.1593,0.1524,0.1502,0.1358,0.1283,0.1328,0.1338,0.1045,0.0988,0.0868,0.1082,0.0816,0.1363,0.1529,0.1579,0.1704,0.1483,0,0,0,0,0]},{"header":{"parameterUnit":"m.s-1","parameterCategory":2,"la1":30.2991,"la2":30.254,"lo1":-89.0895,"lo2":-89.0444,"dy":0.0017,"dx":0.0017,"nx":28,"ny":28,"refTime":"2023-07-31T03:00:00:Z","depth":"2","parameterNumber":3,"parameterNumberName":"V-component_of_CURRENTS"},"data":[0,0,0,0,0,0,0,0,0,0,0,0,0,0,0,0,0,0,0,0,0,0,0,0,0,0,0,0,0,0,0,0,0,0,0,0,0,0,0,0,0,0,0,0,0,0,0,0,0,0,0,0,0,0,0,0,0,0,0.003,0.003,0,0.0015,0.0015,0.0015,-0.0001,-0.0002,-0.0002,-0.0002,-0.0019,-0.0019,-0.0019,0,0,0,0,0,0,0,0,0,0,0,0,0,0.0022,0.0022,0.003,0.003,0.003,0.0015,0.0015,0.0015,-0.0001,-0.0002,-0.0002,-0.0002,-0.0019,-0.0019,-0.0019,0,0,0,0,0,0,0,0,0,0,0,0,0,0.0017,0.0022,0.003,0.0021,0.002,0.0015,0.0015,0.0015,-0.0001,-0.0002,-0.0002,-0.0002,-0.0018,-0.0019,-0.0019,-0.0017,0,0,-0.0021,-0.0021,0,0,0,0,0,0,0,0,0.0018,0.0018,0.0022,0.0021,0.002,0.0009,0.0006,0.0004,-0.0001,0.0006,-0.0002,-0.0002,-0.0009,-0.001,-0.0013,-0.0018,-0.0019,-0.0021,-0.0021,-0.0021,-0.0021,0,0,0,0,0,0,0,0.0018,0.0018,0.0023,0.0022,0.0021,0.001,0.0009,0.0005,-0.0001,0.0005,0.0004,0.0004,-0.0009,-0.0013,-0.0014,-0.0019,-0.0021,-0.0021,-0.0021,-0.0022,-0.003,-0.003,0,0,0,0,0,0,0.0023,0.0019,0.0024,0.0023,0.0019,0.001,0.0009,0.0012,-0.0001,-0.0003,0.0004,0.0003,-0.0012,-0.0013,-0.0015,-0.0017,-0.0021,-0.0022,-0.0022,-0.003,-0.003,-0.003,0,0,0,0,0,0,0.0023,0.0024,0.0025,0.0021,0.002,0.0011,0.0014,0.0012,0.0009,-0.0001,-0.0003,0.0003,-0.0012,-0.0014,-0.002,-0.0018,-0.0022,-0.0022,-0.003,-0.003,-0.003,-0.0019,0,0,0,0,0,0,0.0023,0.0024,0.0025,0.0021,0.0021,0.0029,0.0015,0.0012,0.0009,0.0008,-0.0003,-0.0005,-0.0013,-0.0019,-0.002,-0.0018,-0.0023,-0.003,-0.003,-0.003,-0.002,-0.0019,-0.0018,0,0,0,0,0,0.0023,0.0028,0.0025,0.0025,0.0023,0.0029,0.0028,0.0019,0.001,0.0014,-0.0,-0.0004,-0.0019,-0.0019,-0.0021,-0.0019,-0.003,-0.003,-0.003,-0.002,-0.0019,-0.0018,0,0,0,0,0,0,0.0025,0.0027,0.0023,0.0029,0.0031,0.0027,0.0027,0.0021,0.0013,0.0009,-0.0004,-0.0007,-0.0011,-0.0016,-0.0016,-0.0021,-0.0025,-0.0026,-0.0017,-0.0016,-0.0016,-0.0002,-0.0023,0,0,0,0,0,0.0026,0.0032,0.0032,0.0038,0.0039,0.0032,0.0031,0.0028,0.0022,0.0018,0.001,-0.0001,-0.0011,-0.0015,-0.0021,-0.0023,0.0003,-0.0023,-0.0022,-0.0021,-0.0011,0.0045,0.0052,-0.003,-0.003,-0.003,0,0,0.0026,0.003,0.0032,0.0038,0.0037,0.0043,0.0031,0.0035,0.0036,0.0018,0.0014,0.0002,-0.0011,-0.0016,-0.0018,-0.002,0.0012,-0.0021,-0.0021,-0.0011,0.0046,0.0054,0.0062,-0.003,-0.003,-0.003,0,0,0.0039,0.0036,0.0047,0.0048,0.0052,0.0051,0.0054,0.0052,0.0046,0.0041,0.0026,0.002,0.0003,-0.0002,-0.0009,-0.0005,0.0015,-0.0013,0.0002,0.0056,0.0064,0.0071,0.0105,0.0115,-0.0013,-0.0013,-0.0013,0,0.0039,0.0054,0.0051,0.0061,0.0061,0.0056,0.0065,0.0061,0.0057,0.006,0.0042,0.0037,0.0012,0.0023,0.0006,-0.0002,0.0028,-0.0001,0.0059,0.0067,0.0075,0.0107,0.0119,-0.0013,-0.0013,-0.0013,-0.0013,0,0.0061,0.0068,0.0074,0.0085,0.0085,0.0093,0.0088,0.0091,0.0079,0.0079,0.0087,0.0065,0.0071,0.0049,0.0016,0.0051,0.0055,0.0056,0.0061,0.0084,0.0116,0.0128,-0.0012,-0.0012,-0.0012,-0.0012,0,0,0.0069,0.0087,0.0088,0.0095,0.0096,0.0102,0.0105,0.0115,0.0144,0.0123,0.0169,0.011,0.0117,0.0109,0.0088,0.0107,0.0153,0.0093,0.0095,0.0133,0.0268,0.0209,0.0216,0.0173,0.0175,0.0177,0.0266,0,0.0087,0.011,0.0113,0.0129,0.0136,0.0131,0.0147,0.0153,0.0164,0.0212,0.0193,0.0223,0.0137,0.0155,0.0158,0.0182,0.0186,0.0128,0.0234,0.0237,0.0189,0.0229,0.0214,0.0288,0.0278,0.028,0.0281,0,0.0101,0.0117,0.0137,0.016,0.0165,0.0172,0.0207,0.0221,0.0273,0.0291,0.0316,0.033,0.0352,0.0286,0.0325,0.0299,0.0268,0.0266,0.027,0.0223,0.0201,0.0265,0.0309,0.0301,0.0299,0.0298,0.0296,0,0.0107,0.0129,0.0148,0.015,0.0179,0.0186,0.0198,0.0239,0.0288,0.0357,0.043,0.0453,0.0511,0.0489,0.0445,0.0407,0.0503,0.0464,0.0374,0.037,0.0381,0.0374,0.0473,0.0473,0.0473,0.0473,0.0472,0,0.0122,0.0135,0.015,0.0161,0.0197,0.0197,0.0262,0.0283,0.0374,0.0481,0.0476,0.0593,0.0566,0.0611,0.053,0.0502,0.0574,0.0391,0.0398,0.038,0.0371,0.0399,0.0389,0.0476,0.0475,0.0474,0.0474,0,0.0128,0.0141,0.0163,0.0189,0.0202,0.0218,0.0296,0.0373,0.0433,0.0589,0.0626,0.0737,0.0793,0.0736,0.0742,0.0634,0.0596,0.0546,0.0508,0.0506,0.0403,0.0392,0.0488,0.0487,0.0486,0.0485,0.0484,0,0.0137,0.0149,0.018,0.0219,0.0231,0.0271,0.0337,0.0391,0.0499,0.0691,0.0801,0.0892,0.0973,0.0944,0.0785,0.0654,0.0617,0.0532,0.0427,0.0411,0.0409,0.04,0.0391,0.0452,0.0451,0.0451,0.045,0,0.0159,0.0166,0.0204,0.0275,0.0331,0.0406,0.0498,0.06,0.0723,0.0858,0.1068,0.1137,0.1084,0.0974,0.0758,0.0656,0.0551,0.0509,0.0572,0.0424,0.0378,0.0374,0.0368,0.0444,0.0444,0.0445,0.0445,0.0445,0.0187,0.0218,0.0281,0.0353,0.0433,0.0563,0.0645,0.0794,0.0972,0.1171,0.123,0.1275,0.1129,0.0829,0.0681,0.0491,0.0494,0.0404,0.0408,0.0412,0.0365,0.0317,0.0363,0.0363,0.0363,0.0363,0.0363,0,0.0229,0.0285,0.0367,0.0477,0.0607,0.0602,0.0788,0.0899,0.1123,0.1222,0.1335,0.1157,0.1011,0.0819,0.0518,0.0357,0.0348,0.0313,0.0336,0.0343,0.0349,0.0299,0.028,0.0279,0.0279,0.0278,0,0,0.0264,0.0352,0.0404,0.0621,0.0705,0.0833,0.0935,0.11,0.1188,0.1292,0.1254,0.1217,0.0996,0.0761,0.0576,0.042,0.0412,0.0387,0.0468,0.0524,0.0532,0.0414,0.0345,0,0,0,0,0]}],[{"header":{"parameterUnit":"m.s-1","parameterCategory":2,"la1":30.2991,"la2":30.254,"lo1":-89.0895,"lo2":-89.0444,"dy":0.0017,"dx":0.0017,"nx":28,"ny":28,"refTime":"2023-07-31T03:00:00:Z","depth":"4","parameterNumber":2,"parameterNumberName":"U-component_of_CURRENTS"},"data":[0,0,0,0,0,0,0,0,0,0,0,0,0,0,0,0,0,0,0,0,0,0,0,0,0,0,0,0,0,0,0,0,0,0,0,0,0,0,0,0,0,0,0,0,0,0,0,0,0,0,0,0,0,0,0,0,0,0,0.0611,0.0611,0,0.0616,0.0616,0.0616,0.0646,0.0647,0.0648,0.0649,0.0665,0.0664,0.0664,0,0,0,0,0,0,0,0,0,0,0,0,0,0.0637,0.0636,0.0611,0.0611,0.0611,0.0616,0.0616,0.0615,0.0646,0.0647,0.0648,0.0649,0.0665,0.0664,0.0664,0,0,0,0,0,0,0,0,0,0,0,0,0,0.0631,0.0636,0.0611,0.0628,0.0629,0.0616,0.0616,0.0615,0.0646,0.0647,0.0648,0.0649,0.0665,0.0664,0.0664,0.0635,0,0,0.0662,0.0662,0,0,0,0,0,0,0,0,0.0631,0.063,0.0625,0.0626,0.0628,0.0633,0.0631,0.0623,0.0645,0.0638,0.0649,0.065,0.0655,0.0655,0.0651,0.0636,0.0637,0.0662,0.0662,0.0662,0.0662,0,0,0,0,0,0,0,0.0632,0.063,0.0611,0.0625,0.0627,0.0638,0.0639,0.0629,0.0639,0.0639,0.0641,0.0643,0.0656,0.0652,0.0652,0.0637,0.0662,0.0662,0.0661,0.0661,0.0722,0.0724,0,0,0,0,0,0,0.0631,0.063,0.0611,0.0612,0.0634,0.0637,0.0637,0.0629,0.0639,0.0641,0.0642,0.0645,0.0652,0.0653,0.0653,0.0679,0.0662,0.0661,0.0661,0.072,0.0722,0.0725,0,0,0,0,0,0,0.0631,0.0629,0.0611,0.0623,0.0621,0.0635,0.0626,0.0628,0.0644,0.0641,0.0645,0.0657,0.0653,0.0654,0.0666,0.0677,0.0661,0.066,0.0718,0.0721,0.0723,0.0692,0,0,0,0,0,0,0.0632,0.0629,0.063,0.0622,0.0621,0.0606,0.0625,0.0628,0.0642,0.0646,0.0654,0.0656,0.0654,0.0667,0.0665,0.0676,0.066,0.0715,0.0719,0.0723,0.0691,0.0694,0.0696,0,0,0,0,0,0.0633,0.0626,0.063,0.0629,0.062,0.0606,0.0605,0.0619,0.0642,0.064,0.066,0.0657,0.069,0.0666,0.0665,0.0676,0.0714,0.0718,0.0722,0.069,0.0693,0.0696,0,0,0,0,0,0,0.0639,0.0628,0.0633,0.0624,0.0618,0.0611,0.062,0.0627,0.0639,0.0656,0.0659,0.0661,0.0674,0.0691,0.0665,0.0714,0.0711,0.0715,0.0687,0.069,0.0693,0.0685,0.066,0,0,0,0,0,0.064,0.0632,0.0623,0.0617,0.062,0.0624,0.0626,0.0631,0.0637,0.0646,0.0655,0.068,0.0687,0.0701,0.0705,0.0721,0.0745,0.0741,0.0744,0.0745,0.0744,0.0816,0.0824,0.0739,0.0739,0.0739,0,0,0.0642,0.0635,0.0632,0.0618,0.0624,0.0608,0.0629,0.0634,0.062,0.0644,0.065,0.0673,0.0692,0.0707,0.0719,0.0725,0.0779,0.0751,0.0751,0.0749,0.0822,0.083,0.0837,0.0742,0.0741,0.0741,0,0,0.0635,0.0638,0.0631,0.0618,0.062,0.0614,0.0618,0.0622,0.063,0.0634,0.0654,0.0688,0.0705,0.0719,0.0728,0.0754,0.0778,0.0778,0.079,0.086,0.0867,0.0874,0.0887,0.0895,0.0794,0.0794,0.0794,0,0.0646,0.0614,0.0626,0.0609,0.0594,0.0616,0.0593,0.0596,0.0603,0.0611,0.0639,0.0694,0.0705,0.0725,0.0745,0.0753,0.0793,0.0764,0.0861,0.0868,0.0875,0.0887,0.0896,0.0793,0.0793,0.0793,0.0793,0,0.0614,0.0595,0.0592,0.0569,0.056,0.0543,0.0543,0.0552,0.0578,0.0586,0.0627,0.0667,0.0717,0.0728,0.074,0.0802,0.0811,0.0838,0.084,0.0881,0.0892,0.0902,0.0791,0.0792,0.0792,0.0792,0,0,0.0624,0.0576,0.0578,0.0545,0.0531,0.0512,0.0507,0.0497,0.0519,0.0552,0.0592,0.0621,0.0691,0.0711,0.0754,0.0814,0.0883,0.0861,0.0865,0.0852,0.1018,0.0922,0.0923,0.0947,0.0949,0.0951,0.0993,0,0.0596,0.0536,0.0526,0.047,0.0435,0.0443,0.0442,0.0446,0.0485,0.0538,0.0594,0.0651,0.0672,0.0735,0.0797,0.0868,0.0915,0.0867,0.1001,0.1003,0.0896,0.0934,0.0959,0.1001,0.1003,0.1005,0.1006,0,0.0566,0.0521,0.0456,0.0406,0.0401,0.0384,0.0393,0.0404,0.0476,0.0526,0.0608,0.0667,0.0749,0.079,0.0913,0.0896,0.0957,0.1001,0.1005,0.0934,0.0927,0.0965,0.1024,0.1023,0.1021,0.102,0.1019,0,0.053,0.0473,0.041,0.0384,0.0346,0.034,0.0354,0.0408,0.0449,0.0551,0.0626,0.0707,0.0815,0.0887,0.0975,0.0972,0.1112,0.1116,0.1066,0.1058,0.1143,0.1136,0.1205,0.1205,0.1205,0.1205,0.1204,0,0.047,0.0418,0.0393,0.0343,0.0311,0.0325,0.0358,0.0382,0.0498,0.0568,0.0655,0.0735,0.0865,0.0952,0.0994,0.1054,0.1132,0.1062,0.1074,0.1125,0.1117,0.1147,0.114,0.1206,0.1206,0.1205,0.1205,0,0.0402,0.0386,0.0301,0.0269,0.028,0.0263,0.035,0.0397,0.0517,0.0629,0.0671,0.0801,0.0898,0.0976,0.1101,0.1093,0.1134,0.1136,0.1153,0.1165,0.1018,0.101,0.1067,0.1064,0.1062,0.106,0.1058,0,0.0338,0.0296,0.0248,0.0225,0.0204,0.0232,0.0279,0.0392,0.0462,0.0646,0.0691,0.0826,0.0899,0.099,0.1059,0.1099,0.1105,0.1106,0.1076,0.1004,0.101,0.1005,0.1,0.1054,0.1054,0.1053,0.1052,0,0.0221,0.0224,0.0165,0.0134,0.0144,0.017,0.025,0.0304,0.047,0.0587,0.0708,0.0771,0.0886,0.0944,0.1002,0.1024,0.1086,0.1081,0.1086,0.1058,0.099,0.0997,0.0994,0.1044,0.1045,0.1046,0.1046,0,0.0159,0.0104,0.0077,0.0038,0.0054,0.0095,0.0148,0.0262,0.0365,0.0586,0.0612,0.0755,0.0876,0.0904,0.0936,0.0964,0.0951,0.0926,0.0938,0.0948,0.089,0.0784,0.0787,0,0,0,0,0,0.0114,0.0065,0.0001,-0.003,-0.0014,0.0018,0.0124,0.0207,0.0385,0.0455,0.0548,0.0637,0.0729,0.0779,0.0785,0.0846,0.0923,0.0844,0.0891,0.0998,0.1008,0.095,0,0,0,0,0,0,0.0093,0.0032,-0.002,-0.0059,-0.0072,-0.0024,0.0043,0.0156,0.0217,0.0389,0.0441,0.0578,0.0663,0.0723,0.0767,0.0784,0.0795,0.0932,0.0929,0.0993,0.1002,0.1009,0.0953,0,0,0,0,0]},{"header":{"parameterUnit":"m.s-1","parameterCategory":2,"la1":30.2991,"la2":30.254,"lo1":-89.0895,"lo2":-89.0444,"dy":0.0017,"dx":0.0017,"nx":28,"ny":28,"refTime":"2023-07-31T03:00:00:Z","depth":"4","parameterNumber":3,"parameterNumberName":"V-component_of_CURRENTS"},"data":[0,0,0,0,0,0,0,0,0,0,0,0,0,0,0,0,0,0,0,0,0,0,0,0,0,0,0,0,0,0,0,0,0,0,0,0,0,0,0,0,0,0,0,0,0,0,0,0,0,0,0,0,0,0,0,0,0,0,0.0099,0.0099,0,0.0103,0.0103,0.0103,0.0098,0.0098,0.0098,0.0098,0.0096,0.0096,0.0096,0,0,0,0,0,0,0,0,0,0,0,0,0,0.0077,0.0078,0.0099,0.0099,0.01,0.0103,0.0103,0.0103,0.0098,0.0098,0.0098,0.0098,0.0096,0.0096,0.0097,0,0,0,0,0,0,0,0,0,0,0,0,0,0.0084,0.0078,0.0099,0.0098,0.0098,0.0103,0.0103,0.0103,0.0098,0.0098,0.0098,0.0098,0.0096,0.0096,0.0097,0.0102,0,0,0.0097,0.0097,0,0,0,0,0,0,0,0,0.0084,0.0085,0.0098,0.0098,0.0098,0.01,0.0094,0.0102,0.0098,0.0098,0.0098,0.0098,0.0097,0.0097,0.0099,0.0102,0.0102,0.0097,0.0097,0.0097,0.0097,0,0,0,0,0,0,0,0.0084,0.0085,0.0101,0.0098,0.0098,0.0093,0.0093,0.0096,0.0099,0.0098,0.0098,0.0098,0.0097,0.0098,0.0098,0.0102,0.0097,0.0097,0.0097,0.0097,0.0109,0.0109,0,0,0,0,0,0,0.0084,0.0085,0.0101,0.0101,0.009,0.0093,0.0094,0.0099,0.0099,0.0099,0.0098,0.0098,0.0098,0.0098,0.0098,0.0127,0.0097,0.0097,0.0097,0.0108,0.0109,0.0109,0,0,0,0,0,0,0.0084,0.0086,0.0101,0.0092,0.0094,0.0094,0.01,0.01,0.0103,0.0099,0.0099,0.0102,0.0098,0.0098,0.0104,0.0126,0.0097,0.0098,0.0108,0.0109,0.0109,0.017,0,0,0,0,0,0,0.0083,0.0086,0.0091,0.0093,0.0094,0.0109,0.01,0.01,0.0103,0.0103,0.0102,0.0101,0.0098,0.0104,0.0104,0.0126,0.0098,0.0108,0.0108,0.0109,0.0168,0.0172,0.0176,0,0,0,0,0,0.0083,0.0091,0.0092,0.0093,0.0102,0.0109,0.011,0.0109,0.0104,0.0109,0.0107,0.0102,0.0106,0.0104,0.0105,0.0127,0.0108,0.0108,0.0109,0.0166,0.0171,0.0176,0,0,0,0,0,0,0.0085,0.0092,0.0092,0.0103,0.0108,0.0109,0.0113,0.0111,0.0114,0.0114,0.0107,0.0107,0.0121,0.0109,0.0107,0.0128,0.0105,0.0105,0.0148,0.0153,0.0157,0.018,0.0098,0,0,0,0,0,0.0088,0.0098,0.0101,0.0111,0.0114,0.0114,0.0117,0.0118,0.0119,0.012,0.0119,0.0116,0.0123,0.0126,0.0126,0.0139,0.011,0.015,0.0154,0.0158,0.0174,0.013,0.0132,0.011,0.011,0.011,0,0,0.0091,0.0097,0.0102,0.0112,0.0115,0.0134,0.0115,0.0124,0.015,0.012,0.0147,0.0132,0.0128,0.0145,0.015,0.014,0.0148,0.0159,0.0162,0.0177,0.0131,0.0133,0.0135,0.0111,0.0111,0.0111,0,0,0.0106,0.0108,0.0122,0.0132,0.0141,0.0146,0.015,0.0154,0.0166,0.0183,0.0171,0.0171,0.0174,0.0181,0.0185,0.0211,0.0171,0.0202,0.0247,0.0204,0.0206,0.0207,0.017,0.0168,0.0205,0.0205,0.0205,0,0.011,0.0135,0.0127,0.0148,0.0168,0.0156,0.0186,0.0197,0.0204,0.0219,0.0199,0.0204,0.0199,0.0229,0.024,0.0225,0.0186,0.0232,0.0211,0.0211,0.0211,0.0173,0.017,0.0208,0.0208,0.0208,0.0207,0,0.0138,0.0164,0.0174,0.0203,0.0219,0.0242,0.0258,0.0275,0.0279,0.0283,0.0302,0.0284,0.0287,0.0282,0.0275,0.0281,0.0249,0.022,0.0201,0.0217,0.0176,0.0171,0.0213,0.0212,0.0211,0.021,0,0,0.0138,0.0187,0.0192,0.0229,0.0256,0.0277,0.032,0.0358,0.0382,0.0378,0.0399,0.0413,0.0382,0.0384,0.0361,0.0331,0.0301,0.0281,0.0277,0.0252,0.0199,0.0205,0.0199,0.0256,0.0255,0.0255,0.017,0,0.0169,0.0229,0.0245,0.0313,0.0352,0.0369,0.0412,0.0441,0.0444,0.0452,0.044,0.0439,0.0427,0.0413,0.0389,0.0313,0.029,0.0326,0.0182,0.0178,0.0187,0.0195,0.0253,0.0166,0.0165,0.0164,0.0163,0,0.0192,0.0241,0.0315,0.0392,0.0409,0.0449,0.0512,0.0545,0.0553,0.0549,0.0542,0.0502,0.0484,0.0446,0.0359,0.0375,0.0307,0.0246,0.024,0.0225,0.0175,0.0145,0.0154,0.0154,0.0155,0.0156,0.0156,0,0.0211,0.0288,0.036,0.0387,0.0465,0.0512,0.055,0.0578,0.0606,0.0596,0.0586,0.0549,0.0523,0.0432,0.0329,0.0328,0.0204,0.018,0.0131,0.0129,0.0122,0.0122,0.0122,0.0122,0.0122,0.0123,0.0123,0,0.0244,0.03,0.0381,0.0425,0.0515,0.055,0.0621,0.0646,0.0657,0.0676,0.0635,0.0615,0.0513,0.043,0.0328,0.022,0.0206,0.0149,0.0112,0.0149,0.0152,0.0118,0.0119,0.0119,0.012,0.0121,0.0121,0,0.0254,0.0305,0.0392,0.0492,0.053,0.0592,0.0672,0.0704,0.0715,0.0728,0.072,0.0658,0.0554,0.0447,0.029,0.0234,0.0109,0.0076,0.0131,0.0096,0.0063,0.0067,0.0012,0.0012,0.0011,0.0011,0.0011,0,0.0269,0.0316,0.0434,0.0488,0.0542,0.0634,0.0689,0.0734,0.0753,0.0746,0.074,0.0659,0.0606,0.0397,0.028,0.0104,0.0088,0.0034,0.0059,0.0085,0.0053,0.0058,0.0063,0.001,0.001,0.001,0.001,0,0.0296,0.0331,0.0394,0.0497,0.0579,0.0676,0.075,0.0762,0.0796,0.0807,0.0747,0.065,0.0546,0.0393,0.0273,0.014,0.0069,0.003,0.003,0.0053,0.0081,0.0052,0.0057,0.0009,0.0009,0.0009,0.0009,0,0.0299,0.0335,0.0401,0.0499,0.0595,0.0684,0.0733,0.076,0.0786,0.0776,0.0746,0.0636,0.058,0.0409,0.0276,0.017,0.0148,0.0117,0.0112,0.0112,0.0174,0.0226,0.0174,0,0,0,0,0,0.03,0.0333,0.0403,0.0505,0.0593,0.067,0.0753,0.0786,0.0813,0.0777,0.0767,0.0661,0.0493,0.0406,0.0301,0.0266,0.0125,0.0139,0.0087,0.0002,0.0003,0.006,0,0,0,0,0,0,0.0297,0.0347,0.0384,0.0488,0.0564,0.0673,0.074,0.0768,0.0744,0.0748,0.065,0.0638,0.0461,0.0552,0.0297,0.0266,0.0219,0.0068,0.0066,0.0001,0.0002,0.0003,0.0062,0,0,0,0,0]}]]